KLM133 EHAM-KATL

Flight info

Callsign KLM133
Flight time N/A
Altitude 34000
Route BERGI3N BERGI L60 PENIL M144 BAGSO DCT MOMIN DCT MALOT/M083F350 DCT 54N020W 55N030W 55N040W 53N050W DCT RIKAL/N0470F360 DCT MIILS DCT KAYCC DCT KYLOH DCT BAF Q448 BASYE/N0475F380 Q448 PTW J48 MOL DCT FLASK OZZZI2
Aircraft B77W/H-SDE1E2E3FGHIJ2J3J4J5M1RWXY/LB1D1

Departure

Time 2026-04-28 15:55
Airport Amsterdam Airport Schiphol (EHAM)

Arrival

Time N/A
Airport Hartsfield Jackson Atlanta International Airport (KATL)
Time Latitude Longitude Altitude Speed Heading
2026-04-28 15:28 52.31383 4.76727 12 ft 0 kts 122°
2026-04-28 15:45 52.31395 4.76694 40 ft 4 kts 117°
2026-04-28 15:45 52.31405 4.76660 11 ft 3 kts 109°
2026-04-28 15:45 52.31408 4.76634 14 ft 2 kts 91°
2026-04-28 15:45 52.31408 4.76615 15 ft 2 kts 71°
2026-04-28 15:46 52.31403 4.76599 17 ft 2 kts 49°
2026-04-28 15:46 52.31395 4.76586 17 ft 2 kts 38°
2026-04-28 15:46 52.31386 4.76575 13 ft 2 kts 35°
2026-04-28 15:46 52.31383 4.76571 13 ft 0 kts 34°
2026-04-28 15:49 52.31387 4.76576 13 ft 3 kts 34°
2026-04-28 15:49 52.31416 4.76608 14 ft 7 kts 34°
2026-04-28 15:49 52.31467 4.76659 15 ft 10 kts 27°
2026-04-28 15:49 52.31540 4.76658 17 ft 12 kts 318°
2026-04-28 15:50 52.31552 4.76530 21 ft 12 kts 268°
2026-04-28 15:50 52.31547 4.76390 27 ft 14 kts 266°
2026-04-28 15:50 52.31541 4.76211 21 ft 18 kts 267°
2026-04-28 15:50 52.31534 4.76006 23 ft 18 kts 266°
2026-04-28 15:51 52.31526 4.75781 17 ft 22 kts 266°
2026-04-28 15:51 52.31517 4.75530 17 ft 20 kts 267°
2026-04-28 15:51 52.31509 4.75289 14 ft 23 kts 266°
2026-04-28 15:51 52.31500 4.75041 17 ft 21 kts 266°
2026-04-28 15:52 52.31491 4.74802 19 ft 15 kts 266°
2026-04-28 15:52 52.31525 4.74675 22 ft 11 kts 335°
2026-04-28 15:52 52.31546 4.74666 24 ft 1 kts 347°
2026-04-28 15:52 52.31547 4.74665 25 ft 0 kts 347°
2026-04-28 15:53 52.31557 4.74662 25 ft 4 kts 349°
2026-04-28 15:53 52.31606 4.74660 26 ft 9 kts
2026-04-28 15:53 52.31667 4.74729 28 ft 13 kts 70°
2026-04-28 15:53 52.31671 4.74798 25 ft 0 kts 87°
2026-04-28 15:54 52.31672 4.74848 23 ft 18 kts 87°
2026-04-28 15:54 52.31694 4.75439 17 ft 86 kts 86°
2026-04-28 15:54 52.31740 4.76755 22 ft 144 kts 86°
2026-04-28 15:55 52.31825 4.78615 156 ft 174 kts 83°
2026-04-28 15:55 52.31891 4.80577 749 ft 168 kts 79°
2026-04-28 15:55 52.32337 4.82355 1101 ft 183 kts 48°
2026-04-28 15:55 52.33451 4.83397 1584 ft 193 kts 15°
2026-04-28 15:56 52.34802 4.83069 2210 ft 207 kts 338°
2026-04-28 15:56 52.36056 4.81696 2368 ft 234 kts 331°
2026-04-28 15:56 52.37459 4.80116 2613 ft 251 kts 336°
2026-04-28 15:56 52.38979 4.78659 3183 ft 259 kts 330°
2026-04-28 15:57 52.40302 4.76517 3688 ft 274 kts 315°
2026-04-28 15:57 52.41586 4.74148 4310 ft 279 kts 318°
2026-04-28 15:57 52.42985 4.71951 5083 ft 278 kts 320°
2026-04-28 15:57 52.44390 4.69732 5724 ft 283 kts 318°
2026-04-28 15:58 52.45793 4.67450 6443 ft 285 kts 317°
2026-04-28 15:58 52.47332 4.65493 7058 ft 278 kts 339°
2026-04-28 15:58 52.49136 4.64274 7555 ft 283 kts 342°
2026-04-28 15:58 52.50389 4.63508 7965 ft 286 kts 343°
2026-04-28 15:59 52.52874 4.61977 8843 ft 290 kts 342°
2026-04-28 15:59 52.54125 4.61194 9291 ft 291 kts 343°
2026-04-28 15:59 52.56023 4.59998 10009 ft 293 kts 342°
2026-04-28 15:59 52.57921 4.58780 10646 ft 294 kts 342°
2026-04-28 16:00 52.59866 4.57536 11022 ft 309 kts 342°
2026-04-28 16:00 52.61928 4.56194 11261 ft 328 kts 342°
2026-04-28 16:00 52.64110 4.54759 11502 ft 348 kts 341°
2026-04-28 16:00 52.66418 4.53227 11756 ft 364 kts 339°
2026-04-28 16:01 52.68625 4.51001 12014 ft 383 kts 319°
2026-04-28 16:01 52.70262 4.47486 12636 ft 390 kts 305°
2026-04-28 16:01 52.71689 4.43620 13210 ft 397 kts 305°
2026-04-28 16:01 52.73181 4.39861 13707 ft 393 kts 306°
2026-04-28 16:02 52.74705 4.36069 14338 ft 400 kts 304°
2026-04-28 16:02 52.75997 4.31973 14924 ft 405 kts 293°
2026-04-28 16:02 52.76927 4.27549 15481 ft 411 kts 289°
2026-04-28 16:02 52.77757 4.23011 16187 ft 415 kts 288°
2026-04-28 16:03 52.78584 4.18406 16840 ft 423 kts 289°
2026-04-28 16:03 52.79447 4.13752 17719 ft 421 kts 289°
2026-04-28 16:03 52.80333 4.09115 18449 ft 428 kts 290°
2026-04-28 16:03 52.81262 4.04372 18891 ft 438 kts 290°
2026-04-28 16:04 52.82208 3.99610 19669 ft 437 kts 290°
2026-04-28 16:04 52.83160 3.94831 20324 ft 441 kts 290°
2026-04-28 16:04 52.84129 3.89974 20856 ft 447 kts 290°
2026-04-28 16:04 52.85102 3.85078 21485 ft 450 kts 290°
2026-04-28 16:05 52.86083 3.80129 22102 ft 454 kts 291°
2026-04-28 16:05 52.87070 3.75132 22634 ft 459 kts 290°
2026-04-28 16:05 52.88063 3.70089 23260 ft 463 kts 291°
2026-04-28 16:05 52.89063 3.64998 23824 ft 467 kts 291°
2026-04-28 16:06 52.90068 3.59866 24309 ft 471 kts 291°
2026-04-28 16:06 52.91080 3.54686 24791 ft 474 kts 291°
2026-04-28 16:06 52.92085 3.49527 25140 ft 481 kts 291°
2026-04-28 16:06 52.93132 3.44139 25451 ft 488 kts 291°
2026-04-28 16:07 52.94172 3.38769 25881 ft 491 kts 291°
2026-04-28 16:07 52.95202 3.33430 26327 ft 494 kts 291°
2026-04-28 16:07 52.97307 3.22490 27162 ft 501 kts 292°
2026-04-28 16:08 52.98365 3.16964 27593 ft 504 kts 292°
2026-04-28 16:08 52.99426 3.11395 27973 ft 508 kts 292°
2026-04-28 16:08 53.00493 3.05779 28328 ft 512 kts 292°
2026-04-28 16:09 53.02642 2.94397 28957 ft 521 kts 292°
2026-04-28 16:09 53.03725 2.88635 29301 ft 524 kts 292°
2026-04-28 16:09 53.04809 2.82845 29667 ft 526 kts 292°
2026-04-28 16:10 53.06972 2.71239 30604 ft 524 kts 292°
2026-04-28 16:10 53.08046 2.65453 31030 ft 523 kts 292°
2026-04-28 16:10 53.10179 2.53915 31889 ft 520 kts 292°
2026-04-28 16:11 53.11688 2.42048 32536 ft 528 kts 282°
2026-04-28 16:11 53.12616 2.29932 33303 ft 526 kts 282°
2026-04-28 16:12 53.13529 2.17880 34075 ft 524 kts 282°
2026-04-28 16:12 53.13999 2.11864 34328 ft 525 kts 282°
2026-04-28 16:13 53.15437 1.93713 34371 ft 525 kts 282°
2026-04-28 16:14 53.17293 1.69737 34383 ft 522 kts 282°
2026-04-28 16:15 53.19102 1.45699 34379 ft 523 kts 282°
2026-04-28 16:15 53.19992 1.33632 34393 ft 525 kts 282°
2026-04-28 16:16 53.21309 1.15433 34394 ft 528 kts 282°
2026-04-28 16:17 53.22602 0.97155 34393 ft 530 kts 281°
2026-04-28 16:17 53.23451 0.84932 34409 ft 530 kts 281°
2026-04-28 16:18 53.24287 0.72704 34394 ft 530 kts 281°
2026-04-28 16:18 53.25111 0.60467 34377 ft 530 kts 281°
2026-04-28 16:19 53.25921 0.48253 34386 ft 528 kts 281°
2026-04-28 16:19 53.26716 0.36076 34397 ft 527 kts 281°
2026-04-28 16:20 53.27497 0.23917 34400 ft 526 kts 281°
2026-04-28 16:20 53.28266 0.11780 34406 ft 525 kts 281°
2026-04-28 16:21 53.29113 -0.00335 34398 ft 523 kts 285°
2026-04-28 16:21 53.30361 -0.12276 34384 ft 522 kts 286°
2026-04-28 16:22 53.31632 -0.24236 34403 ft 523 kts 285°
2026-04-28 16:22 53.32854 -0.36238 34403 ft 524 kts 285°
2026-04-28 16:23 53.34064 -0.48273 34401 ft 525 kts 285°
2026-04-28 16:23 53.35276 -0.60324 34404 ft 525 kts 285°
2026-04-28 16:24 53.36461 -0.72313 34405 ft 526 kts 284°
2026-04-28 16:24 53.37625 -0.84405 34408 ft 526 kts 284°
2026-04-28 16:25 53.38789 -0.96495 34409 ft 525 kts 285°
2026-04-28 16:25 53.39982 -1.08564 34402 ft 525 kts 284°
2026-04-28 16:26 53.41131 -1.20638 34414 ft 524 kts 284°
2026-04-28 16:26 53.42241 -1.32723 34410 ft 524 kts 284°
2026-04-28 16:27 53.43372 -1.44797 34417 ft 524 kts 284°
2026-04-28 16:28 53.45045 -1.62912 34416 ft 524 kts 284°
2026-04-28 16:28 53.46137 -1.75009 34416 ft 525 kts 284°
2026-04-28 16:29 53.47744 -1.93195 34422 ft 526 kts 284°
2026-04-28 16:30 53.49309 -2.11421 34402 ft 525 kts 283°
2026-04-28 16:30 53.50341 -2.23565 34417 ft 525 kts 283°
2026-04-28 16:31 53.51366 -2.35707 34419 ft 525 kts 283°
2026-04-28 16:31 53.52379 -2.47842 34413 ft 525 kts 283°
2026-04-28 16:32 53.53380 -2.59989 34385 ft 524 kts 283°
2026-04-28 16:32 53.54851 -2.78149 34408 ft 522 kts 283°
2026-04-28 16:33 53.55653 -2.88195 34398 ft 521 kts 283°
2026-04-28 16:33 53.56763 -3.02283 34400 ft 519 kts 283°
2026-04-28 16:34 53.57698 -3.14321 34388 ft 519 kts 282°
2026-04-28 16:34 53.58620 -3.26353 34397 ft 518 kts 282°
2026-04-28 16:35 53.59530 -3.38385 34410 ft 519 kts 282°
2026-04-28 16:35 53.60429 -3.50441 34413 ft 519 kts 282°
2026-04-28 16:36 53.61319 -3.62520 34423 ft 520 kts 282°
2026-04-28 16:36 53.62065 -3.74656 34423 ft 522 kts 278°
2026-04-28 16:37 53.62484 -3.86803 34422 ft 523 kts 278°
2026-04-28 16:38 53.63227 -4.05185 34415 ft 522 kts 278°
2026-04-28 16:38 53.63691 -4.17305 34401 ft 522 kts 278°
2026-04-28 16:39 53.64141 -4.29478 34424 ft 520 kts 278°
2026-04-28 16:39 53.64576 -4.41616 34427 ft 518 kts 278°
2026-04-28 16:40 53.64996 -4.53730 34425 ft 517 kts 278°
2026-04-28 16:40 53.65405 -4.65814 34422 ft 516 kts 277°
2026-04-28 16:41 53.65803 -4.77857 34425 ft 513 kts 277°
2026-04-28 16:41 53.66192 -4.89864 34425 ft 512 kts 277°
2026-04-28 16:42 53.66588 -5.01834 34436 ft 511 kts 277°
2026-04-28 16:42 53.66974 -5.13795 34434 ft 511 kts 277°
2026-04-28 16:43 53.67328 -5.25762 34424 ft 510 kts 276°
2026-04-28 16:43 53.67664 -5.37705 34441 ft 510 kts 276°
2026-04-28 16:44 53.67753 -5.49665 34435 ft 512 kts 269°
2026-04-28 16:44 53.66628 -5.61563 34447 ft 515 kts 260°
2026-04-28 16:45 53.65033 -5.73347 34443 ft 516 kts 259°
2026-04-28 16:45 53.63448 -5.85144 34448 ft 516 kts 260°
2026-04-28 16:46 53.61898 -5.96866 34438 ft 516 kts 260°
2026-04-28 16:46 53.60337 -6.08677 34452 ft 517 kts 260°
2026-04-28 16:47 53.58765 -6.20486 34452 ft 517 kts 260°
2026-04-28 16:47 53.57178 -6.32283 34454 ft 517 kts 260°
2026-04-28 16:48 53.55850 -6.42076 34434 ft 517 kts 260°
2026-04-28 16:48 53.54243 -6.53841 34449 ft 516 kts 259°
2026-04-28 16:49 53.52625 -6.65596 34436 ft 516 kts 259°
2026-04-28 16:49 53.50997 -6.77337 34423 ft 515 kts 259°
2026-04-28 16:50 53.49360 -6.89041 34428 ft 514 kts 259°
2026-04-28 16:50 53.47715 -7.00716 34427 ft 513 kts 259°
2026-04-28 16:51 53.46061 -7.12365 34424 ft 513 kts 259°
2026-04-28 16:51 53.44397 -7.23998 34383 ft 513 kts 259°
2026-04-28 16:52 53.42726 -7.35591 34408 ft 511 kts 259°
2026-04-28 16:52 53.41046 -7.47158 34404 ft 510 kts 259°
2026-04-28 16:53 53.39359 -7.58692 34411 ft 509 kts 258°
2026-04-28 16:53 53.37661 -7.70210 34404 ft 509 kts 258°
2026-04-28 16:54 53.35954 -7.81705 34397 ft 508 kts 258°
2026-04-28 16:54 53.34238 -7.93180 34400 ft 508 kts 258°
2026-04-28 16:55 53.32512 -8.04639 34392 ft 508 kts 258°
2026-04-28 16:55 53.30775 -8.16089 34391 ft 508 kts 258°
2026-04-28 16:56 53.29027 -8.27532 34380 ft 508 kts 258°
2026-04-28 16:56 53.27282 -8.38878 34388 ft 507 kts 258°
2026-04-28 16:57 53.25513 -8.50289 34382 ft 507 kts 257°
2026-04-28 16:57 53.23735 -8.61689 34384 ft 507 kts 257°
2026-04-28 16:58 53.21946 -8.73075 34356 ft 507 kts 257°
2026-04-28 16:58 53.20148 -8.84441 34371 ft 506 kts 257°
2026-04-28 16:59 53.18344 -8.95770 34371 ft 505 kts 257°
2026-04-28 16:59 53.16532 -9.07070 34375 ft 504 kts 257°
2026-04-28 17:00 53.14712 -9.18354 34372 ft 504 kts 257°
2026-04-28 17:00 53.12885 -9.29610 34374 ft 503 kts 257°
2026-04-28 17:01 53.11467 -9.40941 34387 ft 498 kts 266°
2026-04-28 17:01 53.11237 -9.52383 34393 ft 493 kts 274°
2026-04-28 17:02 53.11312 -9.63792 34382 ft 493 kts 273°
2026-04-28 17:02 53.11352 -9.75206 34383 ft 493 kts 272°
2026-04-28 17:03 53.11353 -9.92268 34395 ft 490 kts 272°
2026-04-28 17:03 53.11333 -10.03597 34394 ft 489 kts 272°
2026-04-28 17:04 53.11286 -10.20557 34397 ft 488 kts 272°
2026-04-28 17:05 53.11216 -10.37482 34403 ft 487 kts 272°
2026-04-28 17:06 53.11123 -10.54293 34401 ft 486 kts 271°
2026-04-28 17:06 53.11006 -10.71163 34402 ft 486 kts 271°
2026-04-28 17:07 53.10915 -10.82412 34402 ft 486 kts 271°
2026-04-28 17:07 53.10813 -10.93665 34405 ft 486 kts 271°
2026-04-28 17:08 53.10700 -11.04925 34404 ft 487 kts 271°
2026-04-28 17:08 53.10576 -11.16191 34408 ft 487 kts 271°
2026-04-28 17:09 53.10442 -11.27464 34395 ft 487 kts 271°
2026-04-28 17:09 53.10298 -11.38718 34409 ft 486 kts 270°
2026-04-28 17:10 53.10142 -11.49938 34403 ft 484 kts 270°
2026-04-28 17:10 53.09977 -11.61125 34406 ft 483 kts 270°
2026-04-28 17:11 53.09803 -11.72292 34407 ft 482 kts 270°
2026-04-28 17:11 53.09618 -11.83442 34411 ft 482 kts 270°
2026-04-28 17:12 53.09423 -11.94568 34398 ft 481 kts 270°
2026-04-28 17:12 53.09217 -12.05679 34402 ft 480 kts 270°
2026-04-28 17:13 53.09002 -12.16774 34402 ft 480 kts 269°
2026-04-28 17:13 53.08776 -12.27868 34401 ft 480 kts 269°
2026-04-28 17:14 53.08541 -12.38961 34411 ft 479 kts 269°
2026-04-28 17:14 53.08295 -12.50037 34398 ft 479 kts 269°
2026-04-28 17:15 53.08039 -12.61093 34403 ft 478 kts 269°
2026-04-28 17:15 53.07773 -12.72131 34395 ft 477 kts 269°
2026-04-28 17:16 53.07498 -12.83144 34388 ft 476 kts 268°
2026-04-28 17:16 53.07216 -12.94058 34399 ft 475 kts 268°
2026-04-28 17:17 53.06921 -13.05023 34392 ft 474 kts 268°
2026-04-28 17:17 53.06617 -13.15960 34393 ft 473 kts 268°
2026-04-28 17:18 53.06304 -13.26884 34397 ft 473 kts 268°
2026-04-28 17:18 53.05982 -13.37801 34405 ft 472 kts 268°
2026-04-28 17:19 53.05649 -13.48681 34397 ft 471 kts 267°
2026-04-28 17:19 53.05308 -13.59534 34398 ft 469 kts 268°
2026-04-28 17:20 53.05018 -13.68523 34399 ft 468 kts 267°
2026-04-28 17:20 53.04600 -13.81145 34403 ft 468 kts 267°
2026-04-28 17:21 53.04232 -13.91925 34393 ft 467 kts 266°
2026-04-28 17:22 53.03662 -14.08066 34386 ft 466 kts 266°
2026-04-28 17:22 53.03270 -14.18818 34389 ft 466 kts 266°
2026-04-28 17:23 53.02665 -14.34926 34392 ft 466 kts 266°
2026-04-28 17:23 53.02250 -14.45667 34401 ft 466 kts 266°
2026-04-28 17:24 53.01825 -14.56395 34385 ft 465 kts 266°
2026-04-28 17:24 53.01394 -14.67035 34389 ft 465 kts 266°
2026-04-28 17:25 53.00728 -14.83089 34395 ft 464 kts 265°
2026-04-28 17:26 53.00317 -14.93788 34388 ft 464 kts 269°
2026-04-28 17:26 53.01093 -15.04400 34399 ft 464 kts 283°
2026-04-28 17:27 53.03155 -15.14559 34400 ft 464 kts 290°
2026-04-28 17:27 53.05462 -15.24590 34392 ft 465 kts 290°
2026-04-28 17:28 53.07744 -15.34640 34390 ft 464 kts 289°
2026-04-28 17:28 53.11105 -15.49753 34390 ft 464 kts 288°
2026-04-28 17:29 53.13325 -15.59845 34379 ft 464 kts 288°
2026-04-28 17:30 53.16639 -15.74999 34393 ft 464 kts 288°
2026-04-28 17:30 53.19935 -15.90170 34391 ft 464 kts 288°
2026-04-28 17:31 53.23207 -16.05348 34397 ft 463 kts 288°
2026-04-28 17:32 53.26456 -16.20528 34387 ft 462 kts 288°
2026-04-28 17:32 53.28595 -16.30580 34392 ft 462 kts 288°
2026-04-28 17:33 53.30739 -16.40713 34375 ft 462 kts 288°
2026-04-28 17:33 53.32167 -16.47486 34389 ft 462 kts 287°
2026-04-28 17:34 53.34999 -16.60991 34392 ft 462 kts 287°
2026-04-28 17:34 53.37117 -16.71150 34388 ft 462 kts 287°
2026-04-28 17:35 53.39224 -16.81305 34383 ft 461 kts 287°
2026-04-28 17:35 53.41320 -16.91466 34382 ft 461 kts 287°
2026-04-28 17:36 53.43405 -17.01619 34375 ft 460 kts 286°
2026-04-28 17:36 53.45129 -17.10056 34374 ft 460 kts 286°
2026-04-28 17:37 53.47196 -17.20218 34376 ft 460 kts 286°
2026-04-28 17:37 53.49253 -17.30384 34392 ft 460 kts 286°
2026-04-28 17:38 53.51303 -17.40564 34378 ft 460 kts 285°
2026-04-28 17:38 53.53345 -17.50767 34370 ft 461 kts 285°
2026-04-28 17:39 53.55382 -17.60992 34368 ft 461 kts 285°
2026-04-28 17:40 53.58422 -17.76348 34361 ft 461 kts 285°
2026-04-28 17:40 53.60438 -17.86603 34364 ft 461 kts 285°
2026-04-28 17:41 53.62446 -17.96873 34353 ft 462 kts 285°
2026-04-28 17:41 53.64450 -18.07175 34368 ft 464 kts 285°
2026-04-28 17:42 53.66455 -18.17539 34355 ft 466 kts 285°
2026-04-28 17:42 53.68458 -18.27950 34349 ft 467 kts 285°
2026-04-28 17:43 53.70458 -18.38400 34351 ft 468 kts 285°
2026-04-28 17:43 53.72453 -18.48877 34337 ft 469 kts 285°
2026-04-28 17:44 53.74437 -18.59357 34341 ft 468 kts 285°
2026-04-28 17:44 53.76408 -18.69829 34330 ft 467 kts 284°
2026-04-28 17:45 53.78367 -18.80295 34340 ft 466 kts 284°
2026-04-28 17:45 53.80312 -18.90745 34332 ft 466 kts 284°
2026-04-28 17:46 53.82246 -19.01194 34322 ft 465 kts 284°
2026-04-28 17:46 53.84167 -19.11633 34318 ft 464 kts 284°
2026-04-28 17:47 53.86078 -19.22071 34326 ft 464 kts 284°
2026-04-28 17:47 53.87978 -19.32515 34315 ft 464 kts 283°
2026-04-28 17:48 53.89856 -19.42895 34312 ft 463 kts 283°
2026-04-28 17:48 53.91736 -19.53342 34307 ft 463 kts 283°
2026-04-28 17:49 53.93608 -19.63803 34312 ft 463 kts 283°
2026-04-28 17:49 53.95469 -19.74267 34292 ft 463 kts 283°
2026-04-28 17:50 53.97320 -19.84734 34308 ft 463 kts 282°
2026-04-28 17:50 53.99162 -19.95201 34298 ft 462 kts 282°
2026-04-28 17:51 54.00929 -20.05692 34282 ft 460 kts 280°
2026-04-28 17:51 54.02428 -20.16254 34289 ft 459 kts 279°
2026-04-28 17:52 54.03876 -20.26830 34277 ft 459 kts 279°
2026-04-28 17:52 54.06084 -20.42674 34280 ft 459 kts 278°
2026-04-28 17:53 54.07564 -20.53237 34276 ft 459 kts 278°
2026-04-28 17:53 54.09036 -20.63804 34267 ft 458 kts 278°
2026-04-28 17:54 54.10495 -20.74353 34257 ft 457 kts 278°
2026-04-28 17:54 54.11942 -20.84894 34258 ft 456 kts 278°
2026-04-28 17:55 54.13368 -20.95360 34258 ft 456 kts 278°
2026-04-28 17:55 54.14803 -21.05969 34247 ft 456 kts 277°
2026-04-28 17:56 54.16210 -21.16443 34240 ft 457 kts 277°
2026-04-28 17:56 54.17619 -21.27012 34236 ft 457 kts 277°
2026-04-28 17:57 54.19021 -21.37602 34244 ft 457 kts 277°
2026-04-28 17:57 54.20415 -21.48209 34221 ft 458 kts 277°
2026-04-28 17:58 54.21801 -21.58828 34230 ft 458 kts 277°
2026-04-28 17:58 54.23178 -21.69462 34236 ft 458 kts 277°
2026-04-28 17:59 54.24547 -21.80105 34226 ft 459 kts 276°
2026-04-28 17:59 54.25908 -21.90784 34234 ft 460 kts 276°
2026-04-28 18:00 54.27263 -22.01483 34239 ft 460 kts 276°
2026-04-28 18:00 54.28610 -22.12201 34227 ft 461 kts 275°
2026-04-28 18:01 54.29946 -22.22916 34217 ft 460 kts 275°
2026-04-28 18:01 54.31162 -22.32739 34211 ft 459 kts 275°
2026-04-28 18:02 54.32455 -22.43265 34206 ft 458 kts 275°
2026-04-28 18:02 54.33757 -22.53951 34202 ft 458 kts 275°
2026-04-28 18:03 54.35047 -22.64626 34201 ft 457 kts 274°
2026-04-28 18:03 54.36328 -22.75307 34195 ft 457 kts 274°